User: anonymous   Login
Location: Nelson
(41.2830°S, 173.2830°E)
Time: 10:39:17
(UTC+13:00)
Language:

Meteor 1-26 Rocket - Orbit

View from above orbital plane
View from above orbital plane
View from above satellite
View from above satellite

Ground track
Ground track

The orbit data is extracted from the following two-line orbital elements,

1  9482U 76102B   19288.37773688 -.00000037  00000-0 -28623-4 0  9993
2  9482  81.2691   8.9037 0067928 302.2148  57.2447 14.07560794207394
Epoch (UTC): 15 October 2019 09:03:56
Eccentricity: 0.0067928
inclination: 81.2691°
perigee height: 818 km
apogee height: 917 km
right ascension of ascending node: 8.9037°
argument of perigee: 302.2148°
revolutions per day: 14.07560794
mean anomaly at epoch: 57.2447°
orbit number at epoch: 20739

The dashed part of the orbit path shows where the satellite is in the earth's shadow,  

DLR